Miscellaneous Local Product
Issued by NWS Hastings, NE

Home | Current Version | Previous Version | Graphics & Text | Print | Product List | Glossary On
Versions: 1 2 3 4 5 6 7 8 9 10 11 12 13 14 15 16 17 18 19 20 21 22 23 24 25 26 27 28 29 30 31 32 33 34 35 36 37 38 39 40 41 42 43 44 45 46 47 48 49 50
513
AXUS43 KGID 270102
MISGRI

GID CWA HOURLY WEATHER ROUNDUP
NATIONAL WEATHER SERVICE HASTINGS NE
800 PM CDT THU MAY 26 2016

NOTE: "FAIR" INDICATES FEW OR NO CLOUDS BELOW 12,000 FEET WITH NO
SIGNIFICANT WEATHER AND/OR OBSTRUCTIONS TO VISIBILITY.

...SOUTH CENTRAL NEBRASKA...

CITY           SKY/WX    TMP DP  RH WIND       PRES   REMARKS
GRAND ISLAND   CLOUDY    65  57  75 NW5       29.74R
HASTINGS       CLOUDY    64  57  78 SE9       29.72F
KEARNEY        CLOUDY    64  55  72 E9        29.73R
ORD            CLOUDY    72  55  55 E14       29.73S
YORK           CLOUDY    61  59  94 E26G32    29.70F
AURORA         CLOUDY    64  57  80 E28G33    29.66S
LEXINGTON      PTCLDY    66  58  75 E7        29.73R
HOLDREGE       MOCLDY    65  60  82 E9        29.70R
HEBRON         CLOUDY    60  60  98 E15       29.75S

...NEBRASKA PANHANDLE...

CITY           SKY/WX    TMP DP  RH WIND       PRES   REMARKS
CHADRON        CLOUDY    64  49  57 SW9       29.82F
ALLIANCE       CLOUDY    61  42  49 N12       29.81F
SCOTTSBLUFF    CLOUDY    62  40  44 NW9       29.85F
SIDNEY         CLOUDY    60  43  53 N13       29.83F

...WESTERN AND NORTH CENTRAL NEBRASKA...

CITY           SKY/WX    TMP DP  RH WIND       PRES   REMARKS
VALENTINE      CLOUDY    72  45  37 N7        29.76F
AINSWORTH      CLOUDY    70  55  58 E9        29.76F
ONEILL         CLOUDY    71  58  64 NE12      29.78F
BROKEN BOW     CLOUDY    71  53  52 E15       29.74F
IMPERIAL       CLOUDY    65  47  52 NE17G23   29.71S
NORTH PLATTE   CLOUDY    64  52  64 NE8       29.74S
MCCOOK         CLOUDY    65  59  81 NE14G25   29.69R THUNDER

...EASTERN NEBRASKA...

CITY           SKY/WX    TMP DP  RH WIND       PRES   REMARKS
NORFOLK        CLOUDY    65  57  75 SE22      29.76F
SO SIOUX CITY  CLOUDY    71  58  63 SE12      29.82R
TEKAMAH        CLOUDY    67  59  75 S9        29.83R
COLUMBUS       CLOUDY    61  54  77 SE23G29   29.75F
ALBION         CLOUDY    65  57  75 SE22G30   29.76R
OMAHA EPPLEY   CLOUDY    65  58  78 E21       29.85R
OFFUTT AFB     LGT RAIN  64  59  82 E13       29.84S
MILLARD        LGT RAIN  64  59  83 E3        29.85R
LINCOLN        LGT RAIN  63  60  90 NE9       29.86F FOG
NEBRASKA CITY  CLOUDY    63  59  87 NE20G26   29.84S
BEATRICE       CLOUDY    62  59  91 E17G23    29.81F
FALLS CITY     RAIN      65  64  97 NE7       29.88R

...NORTHERN KANSAS...

CITY           SKY/WX    TMP DP  RH WIND       PRES   REMARKS
GOODLAND       NOT AVBL
HILL CITY      CLOUDY    68  58  70 NE12      29.63R
NORTON         CLEAR     68  52  56 E14       29.65R
PHILLIPSBURG   CLEAR     66  55  68 E10       29.68R
SMITH CENTER   PTCLDY    64  55  72 E17G24    29.67R
BELOIT         PTCLDY    64  59  82 NE17G24   29.69R
HAYS           CLOUDY    36 N/A N/A SE13      29.59F THUNDER WCI  27
RUSSELL        TSTM      62  56  80 E6        29.70R VSB 1
CONCORDIA      CLOUDY    64  59  83 E12       29.71R
SALINA         TSTM      66  61  84 E14       29.73R
TOPEKA         TSTM      64  60  87 N28G35    29.79S FOG



USA.gov is the U.S. government's official web portal to all federal, state and local government web resources and services.